Location: Härggis
(46.9540°N, 8.4897°E)
Time: 21:03:51
(UTC+00:00)

Cosmos 1953 - Pass Details

Date: 27 May 2022
Orbit: 533 x 555 km, 82.5° (Epoch: 02 July)

Event Time Altitude Azimuth Distance (km) Brightness Sun altitude
Rises 01:15:52 0° 331° (NNW) 2,726 6.4 -17.2°
Reaches altitude 10° 01:19:08 10° 302° (WNW) 1,819 5.0 -16.9°
Maximum altitude 01:20:52 13° 276° (W) 1,650 4.5 -16.8°
Enters shadow 01:21:13 13° 271° (W) 1,656 4.5 -16.8°
